Tracking 29495 objects as of 7-Sep-2024
HD Live streaming from Space Station
objects crossing your sky now

ASTRA 1G

Track ASTRA 1G now!
ASTRA 1G is classified as:


NORAD ID: 25071
Int'l Code: 1997-076A
Perigee: 36,096.4 km
Apogee: 36,188.1 km
Inclination: 8.0 °
Period: 1,453.9 minutes
Semi major axis: 42513 km
RCS: 1.138 m2 (large)
Launch date: December 2, 1997
Source: SOCIETE EUROPEENNE DES SATELLITES (SES)
Launch site: TYURATAM MISSILE AND SPACE COMPLEX (TTMTR)

Direct-to-home tv; multimedia; 32 Ku-band transponders; Europe
Your satellite tracking list
Your tracking list is empty




NASA's NSSDC Master Catalog

Two Line Element Set (TLE):
1 25071U 97076A   24250.75478358 -.00000183  00000-0  00000+0 0  9996
2 25071   7.9958  60.8036 0010793 128.2500 244.7791  0.99041316 97986
Source of the keplerian elements: AFSPC